Location: Calvera
(42.3882°N, 0.6137°E)
Time: 20:16:04
(UTC+00:00)

Cosmos 2322 Rocket - Pass Details

Date: 28 October 2020
Orbit: 832 x 851 km, 71.0° (Epoch: 23 November)

Event Time Altitude Azimuth Distance (km) Brightness Sun altitude
Rises 05:07:38 0° 343° (NNW) 3,420 5.1 -15.1°
Reaches altitude 10° 05:10:24 10° 353° (N) 2,479 4.5 -14.6°
Maximum altitude 05:15:24 31° 55° (NE) 1,447 4.0 -13.6°
Drops below altitude 10° 05:20:22 10° 117° (ESE) 2,455 5.8 -12.7°
Sets 05:23:04 0° 127° (SE) 3,383 6.4 -12.2°
